TimeEST,TemperatureF,Dew PointF,Humidity,Sea Level PressureIn,VisibilityMPH,Wind Direction,Wind SpeedMPH,Gust SpeedMPH,PrecipitationIn,Events,Conditions,WindDirDegrees,DateUTC
12:56 AM,39.9,37.0,89,30.17,8.0,ENE,3.5,-,N/A,,Scattered Clouds,70,2013-01-03 05:56:00
1:56 AM,39.9,37.0,89,30.17,7.0,Calm,Calm,-,N/A,,Mostly Cloudy,0,2013-01-03 06:56:00
2:56 AM,39.9,37.0,89,30.18,8.0,Calm,Calm,-,N/A,,Overcast,0,2013-01-03 07:56:00
3:56 AM,39.9,37.0,89,30.17,7.0,ESE,3.5,-,N/A,,Overcast,120,2013-01-03 08:56:00
4:45 AM,39.9,37.0,89,30.16,7.0,ENE,3.5,-,N/A,,Overcast,70,2013-01-03 09:45:00
4:56 AM,39.9,37.0,89,30.17,7.0,Calm,Calm,-,N/A,,Overcast,0,2013-01-03 09:56:00
5:56 AM,39.9,37.0,89,30.17,6.0,NE,4.6,-,N/A,,Overcast,40,2013-01-03 10:56:00
6:17 AM,39.9,37.0,89,30.18,6.0,Calm,Calm,-,N/A,,Overcast,0,2013-01-03 11:17:00
6:30 AM,39.9,37.0,89,30.18,7.0,Calm,Calm,-,N/A,,Overcast,0,2013-01-03 11:30:00
6:56 AM,39.9,37.0,89,30.19,7.0,Calm,Calm,-,N/A,,Overcast,0,2013-01-03 11:56:00
7:29 AM,39.9,37.0,89,30.20,5.0,NE,3.5,-,N/A,,Overcast,40,2013-01-03 12:29:00
7:52 AM,39.2,37.4,93,30.19,4.0,NE,4.6,-,N/A,,Overcast,40,2013-01-03 12:52:00
8:13 AM,39.9,37.0,89,30.20,5.0,NE,4.6,-,N/A,,Overcast,40,2013-01-03 13:13:00
8:44 AM,39.9,37.0,89,30.21,5.0,NNE,3.5,-,N/A,,Overcast,20,2013-01-03 13:44:00
8:56 AM,39.9,37.0,89,30.22,5.0,NNE,4.6,-,N/A,,Overcast,30,2013-01-03 13:56:00
9:24 AM,41.0,36.0,82,30.22,6.0,NNE,4.6,-,N/A,,Haze,20,2013-01-03 14:24:00
9:38 AM,39.9,36.0,86,30.22,6.0,ENE,6.9,-,N/A,,Overcast,60,2013-01-03 14:38:00
9:56 AM,39.9,35.1,83,30.23,7.0,ENE,6.9,-,N/A,,Overcast,60,2013-01-03 14:56:00
10:23 AM,41.0,34.0,76,30.23,9.0,East,4.6,-,N/A,,Overcast,90,2013-01-03 15:23:00
10:56 AM,42.1,34.0,73,30.23,9.0,ENE,4.6,-,N/A,,Overcast,70,2013-01-03 15:56:00
11:56 AM,42.1,34.0,73,30.19,9.0,Calm,Calm,-,N/A,,Overcast,0,2013-01-03 16:56:00
12:46 PM,43.0,34.0,71,30.17,9.0,Calm,Calm,-,N/A,,Overcast,0,2013-01-03 17:46:00
12:56 PM,43.0,34.0,71,30.16,9.0,Calm,Calm,-,N/A,,Overcast,0,2013-01-03 17:56:00
1:56 PM,44.1,34.0,68,30.17,10.0,WNW,3.5,-,N/A,,Overcast,300,2013-01-03 18:56:00
2:56 PM,44.1,35.1,71,30.17,10.0,NW,3.5,-,N/A,,Overcast,320,2013-01-03 19:56:00
3:56 PM,43.0,35.1,74,30.20,9.0,NNW,4.6,-,N/A,,Overcast,330,2013-01-03 20:56:00
4:56 PM,42.1,34.0,73,30.21,9.0,NNW,4.6,-,N/A,,Overcast,330,2013-01-03 21:56:00
5:56 PM,41.0,33.1,73,30.22,10.0,Calm,Calm,-,N/A,,Overcast,0,2013-01-03 22:56:00
6:38 PM,39.0,33.1,79,30.23,10.0,Calm,Calm,-,N/A,,Scattered Clouds,0,2013-01-03 23:38:00
6:56 PM,37.0,33.1,86,30.24,9.0,Calm,Calm,-,N/A,,Clear,0,2013-01-03 23:56:00
7:56 PM,34.0,32.0,92,30.25,6.0,Calm,Calm,-,N/A,,Clear,0,2013-01-04 00:56:00
8:56 PM,33.1,30.9,92,30.26,5.0,Calm,Calm,-,N/A,,Clear,0,2013-01-04 01:56:00
9:56 PM,32.0,28.9,88,30.27,4.0,Calm,Calm,-,N/A,,Clear,0,2013-01-04 02:56:00
10:56 PM,30.0,28.0,92,30.27,5.0,West,3.5,-,N/A,,Clear,270,2013-01-04 03:56:00
11:56 PM,30.0,27.0,88,30.27,5.0,Calm,Calm,-,N/A,,Clear,0,2013-01-04 04:56:00